Content
SEND FEEDBACK

Daily
Averages
Monthly
Summary
United States of America

ST. LOUIS, MISSOURI


Home > North America > United States > Missouri
Elevation: 163 meters     Latitude: 38 45N     Longitude: 090 22W

WEATHER
 
SELECT A DAY
Number of Records: 196,588;   Date Range: 1/1/95 - 9/3/14
 
SHARE

PRINT THIS DATA

[ ← Previous Day ]
WEATHER ALMANAC - 2 JANUARY, 2013
[ Next Day → ]
[ °F ]   °C
Weather ElementAverageHighLow
Temperature-6.9 °C0.6 °C (3:54 pm)-12.2 °C (2:54 am)
Dewpoint-11.6 °C-9.4 °C (10:54 am)-14.4 °C (6:54 am)
Humidity72.1 %88 % (1:54 am)43 % (3:54 pm)
Barometer1025.1 hPa1026.8 hPa (2:54 am)1023.4 hPa (4:54 pm)
Wind Speed1.9 km/h9.3 km/h (2:54 pm)
Weather ElementAverage
Visibility14.6 km
Wind DirectionENE (57.8 °)

Weather ElementTotal
Precipitation---
Heating Degree Days24.2 (Base 18.3)
Averaged from 23 records on 2 January, 2013
WEATHER CONDITIONS BREAKOUT
WIND DIRECTION BREAKOUT
WEATHER BY HOUR - 2 JANUARY, 2013
[ °F ]   °C
Local TimeTemperatureDewpointHumidityBarometerVisibilityWind DirectionWind SpeedGust SpeedPrecipitationEventsConditions
1:54 AM-11.1 °C-12.8 °C88 %1026.1 hPa11.3 kmCalmClear
2:54 AM-12.2 °C-13.9 °C87 %1026.8 hPa11.3 kmCalmClear
3:54 AM-11.7 °C-13.9 °C84 %1026.1 hPa12.9 kmCalmClear
4:54 AM-11.7 °C-13.9 °C84 %1026.1 hPa11.3 kmCalmClear
5:54 AM-12 °C-14 °C85 %1025.1 hPa16.1 kmCalmClear
6:54 AM-12.2 °C-14.4 °C84 %1026.4 hPa16.1 kmCalmPartly Cloudy
7:54 AM-12.2 °C-14.4 °C84 %1026.8 hPa16.1 kmCalmPartly Cloudy
8:54 AM-11.1 °C-13.3 °C84 %1026.8 hPa9.7 kmCalmMostly Cloudy
9:54 AM-8.3 °C-11.1 °C81 %1026.4 hPa11.3 kmCalmScattered Clouds
10:54 AM-4.4 °C-9.4 °C69 %1026.1 hPa16.1 kmCalmScattered Clouds
11:54 AM-2.8 °C-10.6 °C56 %1025.1 hPa16.1 kmCalmScattered Clouds
12:54 PM-2.2 °C-11.7 °C49 %1024.4 hPa16.1 kmWSW (250°)5.6 km/hMostly Cloudy
1:54 PM-0.6 °C-11.1 °C46 %1023.7 hPa16.1 kmNW (310°)5.6 km/hMostly Cloudy
2:54 PM0 °C-11.1 °C44 %1024 hPa16.1 kmWSW (250°)9.3 km/hScattered Clouds
3:54 PM0.6 °C-10.6 °C43 %1023.7 hPa16.1 kmSouth (180°)9.3 km/hClear
4:54 PM-1.1 °C-9.4 °C54 %1023.4 hPa16.1 kmSouth (180°)5.6 km/hClear
5:54 PM-3.9 °C-9.4 °C66 %1023.7 hPa16.1 kmCalmPartly Cloudy
6:54 PM-6.1 °C-10 °C74 %1024.4 hPa16.1 kmCalmClear
7:54 PM-5 °C-9.4 °C72 %1024.4 hPa16.1 kmSSE (160°)7.4 km/hClear
8:54 PM-5.6 °C-9.4 °C75 %1024.7 hPa16.1 kmCalmClear
9:54 PM-7.8 °C-10 °C84 %1024.7 hPa14.5 kmCalmClear
10:54 PM-8.9 °C-11.1 °C84 %1025.1 hPa16.1 kmCalmClear
11:54 PM-8.9 °C-11.7 °C81 %1024.7 hPa14.5 kmCalmClear
Hourly data recorded from KSUS, located 0 kilometers away from St. Louis, Missouri







STORIES FROM OUR PARTNERS